Tracking 33850 objects as of 19-Apr-2026
HD Live streaming from Space Station
objects crossing your sky now

STARLINK-31835

Track STARLINK-31835 now!
10-day predictions
STARLINK-31835 is classified as:


NORAD ID: 59772
Int'l Code: 2024-091V
Perigee: 481.6 km
Apogee: 483.1 km
Inclination: 53.2 °
Period: 94.1 minutes
Semi major axis: 6853 km
RCS: Unknown
Launch date: May 14, 2024
Source: United States (US)
Launch site: AIR FORCE WESTERN TEST RANGE (AFWTR)
Your satellite tracking list
Your tracking list is empty




NASA's NSSDC Master Catalog

Two Line Element Set (TLE):
1 59772U 24091V   26108.52686946  .00000568  00000-0  31305-4 0  9994
2 59772  53.1611 201.8445 0001145  79.1472 280.9657 15.30198177109104
Source of the keplerian elements: AFSPC